Pelican — WDC4616 — position and weather

sailwx.info

Track history (hours):
 
Tides and Currents Weather Stations Pressure Air Temp Water Temp Dewpoint Dewpoint Depression Visibility Wind Speed Wind Dir Waves Ship Positions

Pelican

More information available from US FCC via Universal Licensing System and Coast Guard Vessel Documentation Center.

Last reported at 2014-Jul-25 00:14 UTC. Time now 2014-Jul-25 11:23 UTC.
Position N 49°10' W 123°56'.

; draft 2.2 m.

Type: Pleasure craft. MMSI: 367027560.

Date/timePositionNaut miles runAvg speedWind from/ knotsBaromVisibWave heightAir tempDewpointWater temp
2014-Jul-25 00:14N 49°10' W 123°56'0 0.0
2014-Jul-24 23:33N 49°10' W 123°56'3 2.4
2014-Jul-24 22:29N 49°10' W 123°52'8 7.9
2014-Jul-24 21:32N 49°05' W 123°44'8 7.3
2014-Jul-24 20:27N 48°59' W 123°35'9 9.2
2014-Jul-24 19:31N 48°52' W 123°27'2 0.0
2014-Jul-22 22:04N 48°51' W 123°30'0 0.0
2014-Jul-22 21:31N 48°51' W 123°30'0 0.0
2014-Jul-22 20:29N 48°51' W 123°30'18 7.8
2014-Jul-22 18:08N 48°38' W 123°11'  
2014-Jul-17 00:33N 48°37' W 123°09'0 0.0
2014-Jul-16 21:14N 48°37' W 123°09'0 0.0
2014-Jul-16 20:33N 48°37' W 123°09'3 2.4
2014-Jul-16 19:28N 48°37' W 123°06'7 7.5
2014-Jul-16 18:33N 48°35' W 122°56'8 7.7
2014-Jul-16 17:33N 48°32' W 122°46'6 6.1
2014-Jul-16 16:33N 48°31' W 122°36'0 0.0
2014-Jul-16 01:33N 48°31' W 122°36'2 1.9
2014-Jul-16 00:33N 48°31' W 122°34'25 6.1
2014-Jul-15 20:25N 48°06' W 122°27'7 7.8
2014-Jul-15 19:34N 48°00' W 122°21'8 7.7
2014-Jul-15 18:33N 47°53' W 122°22'6 7.7
2014-Jul-15 17:50N 47°47' W 122°24'2 8.7
2014-Jul-15 17:33N 47°45' W 122°25'1 8.7
2014-Jul-15 17:29N 47°44' W 122°25'3 0.2
2014-Jul-15 03:34N 47°41' W 122°24'0 0.0
2014-Jul-15 03:34N 47°41' W 122°24'0 0.0
2014-Jul-15 03:29N 47°41' W 122°24'1 1.5
2014-Jul-15 02:33N 47°40' W 122°23'0 4.4
2014-Jul-15 02:29N 47°40' W 122°23'  
Track history (hours):
 
Tides and Currents Weather Stations Pressure Air Temp Water Temp Dewpoint Dewpoint Depression Visibility Wind Speed Wind Dir Waves Ship Positions

Pelican

More information available from US FCC via Universal Licensing System and Coast Guard Vessel Documentation Center.

Last reported at 2014-Jul-25 00:14 UTC. Time now 2014-Jul-25 11:23 UTC.
Position N 49°10' W 123°56'.

; draft 2.2 m.

Type: Pleasure craft. MMSI: 367027560.

Date/timePositionNaut miles runAvg speedWind from/ knotsBaromVisibWave heightAir tempDewpointWater temp
2014-Jul-25 00:14N 49°10' W 123°56'0 0.0
2014-Jul-24 23:33N 49°10' W 123°56'3 2.4
2014-Jul-24 22:29N 49°10' W 123°52'8 7.9
2014-Jul-24 21:32N 49°05' W 123°44'8 7.3
2014-Jul-24 20:27N 48°59' W 123°35'9 9.2
2014-Jul-24 19:31N 48°52' W 123°27'2 0.0
2014-Jul-22 22:04N 48°51' W 123°30'0 0.0
2014-Jul-22 21:31N 48°51' W 123°30'0 0.0
2014-Jul-22 20:29N 48°51' W 123°30'18 7.8
2014-Jul-22 18:08N 48°38' W 123°11'  
2014-Jul-17 00:33N 48°37' W 123°09'0 0.0
2014-Jul-16 21:14N 48°37' W 123°09'0 0.0
2014-Jul-16 20:33N 48°37' W 123°09'3 2.4
2014-Jul-16 19:28N 48°37' W 123°06'7 7.5
2014-Jul-16 18:33N 48°35' W 122°56'8 7.7
2014-Jul-16 17:33N 48°32' W 122°46'6 6.1
2014-Jul-16 16:33N 48°31' W 122°36'0 0.0
2014-Jul-16 01:33N 48°31' W 122°36'2 1.9
2014-Jul-16 00:33N 48°31' W 122°34'25 6.1
2014-Jul-15 20:25N 48°06' W 122°27'7 7.8
2014-Jul-15 19:34N 48°00' W 122°21'8 7.7
2014-Jul-15 18:33N 47°53' W 122°22'6 7.7
2014-Jul-15 17:50N 47°47' W 122°24'2 8.7
2014-Jul-15 17:33N 47°45' W 122°25'1 8.7
2014-Jul-15 17:29N 47°44' W 122°25'3 0.2
2014-Jul-15 03:34N 47°41' W 122°24'0 0.0
2014-Jul-15 03:34N 47°41' W 122°24'0 0.0
2014-Jul-15 03:29N 47°41' W 122°24'1 1.5
2014-Jul-15 02:33N 47°40' W 122°23'0 4.4
2014-Jul-15 02:29N 47°40' W 122°23'  

Dump ship's entire track history